AirNav   Pilot Hours Calculator
 
 610 users online  

MO7 St Louis Downtown Heliport
St Louis, Missouri, USA

GOING TO ST LOUIS?


FAA INFORMATION EFFECTIVE 15 JULY 2021

Location

FAA Identifier: MO7
Lat/Long: 38-37-31.2000N 090-10-58.8000W
38-37.520000N 090-10.980000W
38.6253333,-90.1830000
(estimated)
Elevation: 387 ft. / 118 m (estimated)
Time zone: UTC -5 (UTC -6 during Standard Time)
Zip code: 63101

Heliport Operations

Heliport use: Open to the public
Activation date: 07/2006
Control tower: no
ARTCC: KANSAS CITY CENTER
FSS: SAINT LOUIS FLIGHT SERVICE STATION
NOTAMs facility: STL (NOTAM-D service available)
Attendance: 0900-1900
SVC AFT HRS ABVL FOR FEE; CONTACT HELIPORT MGR.
Wind indicator: yes
Segmented circle: no

Heliport Communications

UNICOM: 122.8
WX ASOS at CPS (4 nm S): PHONE 618-332-0001
WX ASOS at STL (11 nm NW): PHONE 314-890-4790
WX AWOS-3 at ALN (17 nm N): 128.0 (618-259-7231)

Nearby radio navigation aids

VOR radial/distance  VOR name  Freq  Var
TOYr237/14.1TROY VORTAC116.0004E
STLr134/19.9ST LOUIS VORTAC117.4001E
FTZr091/37.2FORISTELL VORTAC110.8005E

 
NDB name  Hdg/Dist  Freq  Var  ID
ACORE317/8.635000ECP -.-. .--.
CIVIC MEMORIAL201/17.126301WCVM -.-. ...- --

Heliport Services

Runway Information

Helipad H1

Dimensions: 37 x 37 ft. / 11 x 11 m
Surface: mats, in good condition
RIVER BARGE PLATFOR MEASURES APRXLY 175 FT BY 54 FT.
Traffic pattern: leftleft
Markings: basic, in good condition

Heliport Ownership and Management from official FAA records

Ownership: Privately-owned
Owner: BI STATE DEVELOPMENT AGENCY
1680 SAUGET INDUSTRIAL PKWY
SAUGET, IL 62206
Phone 618-337-6060
Manager: ERICK DAHL
6100 ARCHVIEW DRIVE
CAHOKIA, IL 62206-1445
Phone 618-337-6060

Heliport Operational Statistics

Aircraft operations: avg 57/day *
100% local general aviation
* for 12-month period ending 31 December 2018

Additional Remarks

CALL HELIPORT MGR BEFORE ARR FOR LNDG AVAILABILITY DUE TO HVY CONCENTRATION OF AIR TAXI OPNS.
LNDGS FM THE SOUTHE & EAST ARE RECOMMENDED.
DAYLIGHT OPNS ONLY; NGT OPNS NOT RECOMMENDED.
FOR CD CTC ST LOUIS APCH AT 314-890-1017.

Instrument Procedures

There are no published instrument procedures at MO7.

Some nearby airports with instrument procedures:

KCPS - St Louis Downtown Airport (4 nm S)
KSTL - St Louis Lambert International Airport (11 nm NW)
1H0 - Creve Coeur Airport (16 nm W)
KBLV - Scott Air Force Base/MidAmerica Airport (17 nm E)
KALN - St Louis Regional Airport (17 nm N)
 
Loc | Ops | Rwys | IFR | FBO | Links
Com | Nav | Svcs | Stats | Notes
Area around MO7 (St Louis Downtown Heliport)
 
Road maps at: MapQuest Bing Google
 
Aerial photo
WARNING: Photo may not be current or correct
Aerial photo of MO7 (St Louis Downtown Heliport)
Do you have a better or more recent aerial photo of St Louis Downtown Heliport that you would like to share? If so, please send us your photo.

 
Sectional chart

 
Airport distance calculator
Flying to St Louis Downtown Heliport? Find the distance to fly.

From to MO7

Sunrise and sunset
Times for 30-Jul-2021
 Local
(UTC-5)
 Zulu
(UTC)
Morning civil twilight05:3210:32
Sunrise06:0211:02
Sunset20:1301:13
Evening civil twilight20:4201:42

Current date and time
Zulu (UTC)  31-Jul-2021 04:59:38
Local (UTC-5)  30-Jul-2021 23:59:38
 
METAR
KCPS 
4nm SE 
310453Z AUTO 00000KT 10SM CLR 22/20 A3007 RMK AO2 SLP178 T02220200
KSTL 
11nm NW 
310451Z 09008KT 10SM FEW120 OVC250 24/19 A3008 RMK AO2 SLP173 T02390189
KALN 
17nm NE 
310435Z AUTO 00000KT 10SM CLR 23/20 A3008 RMK AO2 T02250195
KBLV 
17nm E 
310356Z AUTO 07003KT 10SM CLR 22/22 A3005 RMK AO2 SLP176 T02230223 $
TAF
KCPS 
4nm SE 
301723Z 3018/3118 06008KT P6SM SCT050 SCT250 FM311100 11006KT P6SM VCTS BKN050CB FM311300 10006KT 6SM SHRA BR VCTS OVC025CB FM311700 11007KT P6SM VCSH OVC025
KSTL 
11nm NW 
310308Z 3103/0106 08005KT P6SM BKN120 FM310900 08005KT P6SM VCTS BKN050CB FM311300 11007KT 5SM SHRA BR VCTS OVC020CB FM311700 14007KT P6SM BKN015 FM010000 VRB04KT P6SM BKN035
KBLV 
17nm E 
310000Z 3100/0106 VRB06KT 9999 FEW100 QNH2999INS BECMG 3111/3112 VRB06KT 9999 OVC030 QNH2997INS BECMG 3114/3115 08010KT 6000 -SHRA OVC020 QNH2997INS TEMPO 3115/3119 30015G25KT 4800 -TSRA OVC015CB BECMG 3120/3121 VRB06KT 6000 BR OVC015 QNH2990INS TX28/3101Z TN17/3109Z
NOTAMs
Click for the latest NOTAMs
NOTAMs are issued by the DoD/FAA and will open in a separate window not controlled by AirNav.

 

 
 

Would you like to see your business listed on this page?

 If your business provides an interesting product or service to pilots, flight crews, aircraft, or users of the St Louis Downtown Heliport, you should consider listing it here.  To start the listing process, click on the button below
 
Add a business
 

Other Pages about St Louis Downtown Heliport

Update a link
 
Copyright © AirNav, LLC. All rights reserved. Privacy Policy  Contact